Zurück zum Katalog

STARLINK-32862

AktivKommunikationVLEO
NORAD 62864·PAYLOAD·🇺🇸 United States

Gestartet Feb 1, 2025 von Vandenberg Space Force Base

Loading…

Nächste Überflüge (nächste 24 Stunden)

TLE

AktuellSource: CelesTrak SupGP

Epoche: Sep 15, 2026, 02:39 UTC

1 62864C 25022L   26258.11090278  .00065804  00000+0  19440-2 0  2588
2 62864  53.1593 326.8005 0001316  87.6809 260.3647 15.34361446    13

Verfolge STARLINK-32862 in Echtzeit mit AllMySat

Download on the App Store